Location: Albany
(35.0170°S, 117.8920°E)
Time: 05:11:16
(UTC+08:00)

A-11 Canister half - Visible Passes

Search period start: 22 January 2021 00:00
Search period end: 01 February 2021 00:00
Orbit: 1517 x 1683 km, 47.2° (Epoch: 20 January)

Date Brightness Start Highest point End Pass type
(mag) Time Alt. Az. Time Alt. Az. Time Alt. Az.
28 Jan 10.9 04:41:37 10° N 04:48:30 22° NE 04:55:32 10° ESE visible
29 Jan 10.9 04:19:13 10° NNE 04:25:40 20° ENE 04:32:16 10° E visible
30 Jan 10.9 03:56:53 10° NNE 04:02:51 18° ENE 04:08:56 10° E visible
31 Jan 10.9 03:34:38 10° NNE 03:40:02 17° ENE 03:45:32 10° E visible
